Chatel, France 16 day weather forecast

Slopes altitude range 1100 m - 2205m

Number of lifts: 197 Pistes: 650km

In some cases the lift and piste totals shown are for the ski domain (e.g. Three Valleys) rather than individual resort (e.g. Courchevel)

Overview

The 16 day weather forecast is fully updated 4 times every day.

    • Sun 16 JUN 2019
    • Sun 16
    • 10C 18C
    • Mon 17 JUN 2019
    • Mon 17
    • 14C 21C
    • Tue 18 JUN 2019
    • Tue 18
    • 16C 22C
    • Wed 19 JUN 2019
    • Wed 19
    • 17C 26C
    • Thu 20 JUN 2019
    • Thu 20
    • 15C 19C
    • Fri 21 JUN 2019
    • Fri 21
    • 13C 18C
    • Sat 22 JUN 2019
    • Sat 22
    • 12C 18C
    • Sun 23 JUN 2019
    • Sun 23
    • 13C 21C
    • Mon 24 JUN 2019
    • Mon 24
    • 16C 24C
    • Tue 25 JUN 2019
    • Tue 25
    • 19C 27C
    • Wed 26 JUN 2019
    • Wed 26
    • 13C 16C
    • Thu 27 JUN 2019
    • Thu 27
    • 12C 18C
    • Fri 28 JUN 2019
    • Fri 28
    • 15C 19C
    • Sat 29 JUN 2019
    • Sat 29
    • 17C 20C
    • Sun 30 JUN 2019
    • Sun 30
    • 18C 21C
    • Mon 01 JUL 2019
    • Mon 01
    • 19C 22C

Date:

Time Type 0°C level Temp Chill Snow Cloud Speed Gust Dir Press
12:00 3387m 18°C 18_6 0cm 51% 6mph 6mph 1020mB
15:00 3445m 18°C 18_6 0cm 82% 6mph 7mph 1019mB
18:00 3674m 18°C 18_5 0cm 50% 5mph 11mph 1019mB
21:00 3864m 10°C 10_5 0cm 0% 5mph 6mph 1021mB
0:00 3851m 9°C 9_5 0cm 19% 5mph 5mph 1020mB
3:00 3873m 8°C 8_4 0cm 51% 4mph 4mph 1019mB
6:00 3892m 8°C 8_0 0cm 25% 0mph 1mph 1019mB
9:00 3848m 14°C 14_4 0cm 0% 4mph 3mph 1018mB
12:00 3743m 21°C 21_6 0cm 0% 6mph 4mph 1017mB
15:00 3826m 22°C 22_4 0cm 0% 4mph 4mph 1016mB
18:00 3820m 22°C 22_2 0cm 19% 2mph 2mph 1016mB
21:00 3842m 13°C 13_4 0cm 100% 4mph 4mph 1017mB
0:00 3751m 12°C 12_4 0cm 88% 4mph 5mph 1017mB
3:00 3680m 11°C 11_4 0cm 4% 4mph 5mph 1017mB
6:00 3675m 11°C 11_2 0cm 18% 2mph 3mph 1017mB
9:00 3699m 16°C 16_4 0cm 24% 4mph 3mph 1016mB
12:00 3722m 22°C 22_3 0cm 62% 3mph 5mph 1015mB
15:00 3753m 23°C 23_4 0cm 79% 4mph 5mph 1014mB
18:00 3671m 23°C 23_0 0cm 39% 0mph 1mph 1014mB
21:00 3634m 14°C 14_6 0cm 0% 6mph 6mph 1015mB
0:00 3672m 13°C 13_6 0cm 38% 6mph 6mph 1015mB
3:00 3605m 12°C 12_5 0cm 93% 5mph 5mph 1014mB
6:00 3616m 12°C 12_5 0cm 70% 5mph 5mph 1013mB
9:00 3650m 17°C 17_2 0cm 42% 2mph 4mph 1012mB
12:00 3642m 26°C 26_7 0cm 33% 7mph 8mph 1011mB
15:00 3665m 25°C 25_2 0cm 55% 2mph 6mph 1010mB
18:00 3623m 25°C 25_1 0cm 28% 1mph 2mph 1012mB
21:00 3616m 13°C 13_4 0cm 79% 4mph 4mph 1014mB
0:00 3627m 12°C 12_3 0cm 89% 3mph 4mph 1014mB
3:00 3605m 11°C 11_3 0cm 100% 3mph 3mph 1014mB
6:00 3551m 11°C 11_1 0cm 100% 1mph 1mph 1014mB
9:00 3545m 15°C 15_5 0cm 67% 5mph 5mph 1013mB
12:00 3467m 19°C 19_5 0cm 67% 5mph 6mph 1013mB
15:00 3445m 19°C 19_3 0cm 100% 3mph 4mph 1013mB
18:00 3421m 19°C 19_1 0cm 100% 1mph 2mph 1014mB
21:00 3372m 12°C 12_1 0cm 99% 1mph 1mph 1016mB
0:00 3376m 10°C 10_3 0cm 62% 3mph 4mph 1016mB
3:00 3373m 9°C 9_2 0cm 11% 2mph 3mph 1016mB
6:00 3350m 9°C 9_1 0cm 6% 1mph 1mph 1016mB
9:00 3399m 13°C 13_4 0cm 35% 4mph 4mph 1016mB
12:00 3468m 18°C 18_4 0cm 59% 4mph 5mph 1015mB
15:00 3489m 18°C 18_5 0cm 74% 5mph 5mph 1014mB
18:00 3452m 18°C 18_4 0cm 85% 4mph 5mph 1015mB
21:00 3256m 12°C 12_5 0cm 100% 5mph 8mph 1017mB
0:00 3395m 10°C 10_2 0cm 100% 2mph 3mph 1017mB
3:00 3317m 8°C 8_1 0cm 74% 1mph 2mph 1017mB
6:00 3204m 8°C 8_0 0cm 76% 0mph 1mph 1017mB
9:00 3271m 12°C 12_4 0cm 74% 4mph 4mph 1017mB
12:00 3422m 18°C 18_4 0cm 80% 4mph 4mph 1016mB
15:00 3457m 18°C 18_4 0cm 43% 4mph 4mph 1015mB
18:00 3445m 18°C 18_2 0cm 31% 2mph 3mph 1015mB
21:00 3420m 11°C 11_3 0cm 34% 3mph 4mph 1017mB
0:00 3322m 10°C 10_4 0cm 43% 4mph 4mph 1017mB
3:00 3177m 10°C 10_3 0cm 100% 3mph 4mph 1017mB
6:00 3202m 9°C 9_2 0cm 67% 2mph 3mph 1017mB
9:00 3304m 13°C 13_4 0cm 53% 4mph 5mph 1017mB
12:00 3534m 21°C 21_5 0cm 60% 5mph 5mph 1016mB
15:00 3481m 21°C 21_4 0cm 76% 4mph 7mph 1016mB
18:00 3487m 21°C 21_1 0cm 87% 1mph 1mph 1017mB
21:00 3472m 15°C 15_3 0cm 20% 3mph 4mph 1019mB
0:00 3734m 14°C 14_2 0cm 13% 2mph 2mph 1019mB
3:00 4044m 13°C 13_1 0cm 54% 1mph 1mph 1018mB
6:00 4214m 12°C 12_1 0cm 51% 1mph 1mph 1017mB
9:00 4314m 16°C 16_2 0cm 46% 2mph 2mph 1016mB
12:00 4425m 24°C 24_3 0cm 65% 3mph 4mph 1016mB
15:00 4506m 25°C 25_3 0cm 16% 3mph 8mph 1015mB
18:00 4506m 26°C 26_1 0cm 8% 1mph 2mph 1015mB
21:00 4467m 18°C 18_2 0cm 0% 2mph 3mph 1017mB
0:00 4316m 17°C 17_2 0cm 0% 2mph 2mph 1017mB
3:00 4247m 15°C 15_1 0cm 0% 1mph 1mph 1017mB
6:00 4254m 15°C 15_2 0cm 0% 2mph 2mph 1016mB
9:00 4246m 19°C 19_4 0cm 0% 4mph 6mph 1016mB
12:00 4215m 27°C 27_7 0cm 0% 7mph 9mph 1016mB
15:00 4261m 28°C 28_7 0cm 41% 7mph 9mph 1016mB
18:00 4243m 28°C 28_8 0cm 57% 8mph 12mph 1017mB
21:00 4133m 17°C 17_3 0cm 48% 3mph 4mph 1019mB
0:00 3989m 15°C 15_7 0cm 74% 7mph 11mph 1019mB
3:00 3660m 13°C 13_6 0cm 100% 6mph 10mph 1019mB
6:00 3133m 13°C 13_2 0cm 100% 2mph 4mph 1019mB
Afternoon 0.583333mm 1.6875 2608m 16°C 16_5 0cm 100% 5mph 11mph 1020mB
Morning 0.145833mm 0.3125 2252m 9°C 9_4 0cm 38% 4mph 9mph 1020mB
Afternoon 0.458333mm 1.375 2466m 18°C 18_6 0cm 27% 6mph 8mph 1022mB
Morning 0mm 0 2735m 6°C 6_7 0cm 4% 7mph 12mph 1024mB
Afternoon 0mm 0 3604m 19°C 19_8 0cm 17% 8mph 14mph 1021mB
Morning 0mm 0 3703m 8°C 8_11 0cm 1% 11mph 23mph 1020mB
Afternoon 0mm 0 3835m 20°C 20_9 0cm 33% 9mph 19mph 1016mB
Morning 0mm 0 4064m 9°C 9_11 0cm 0% 11mph 24mph 1015mB
Afternoon 0mm 0 4073m 21°C 21_11 0cm 74% 11mph 19mph 1011mB
Morning 0mm 0 3777m 10°C 10_7 0cm 32% 7mph 14mph 1011mB
Afternoon 0.770833mm 2.3125 3644m 22°C 22_2 0cm 82% 2mph 3mph 1010mB
Morning 0.104167mm 0.3125 3497m 13°C 13_2 0cm 18% 2mph 3mph 1013mB

16 day outlook at a glance

Forecast issued: 6/16/2019 2:42:07 PM

Chat

Your comments and questions. In a resort? Let us know what it's like!


Characters left 250

For terms and conditions see Readers Comments on the Cookie and privacy policy page.